Childress, TX

9:22 AM CDT on April 23, 2017 (GMT -0500)
Childress Municipal

Weather History for KCDS - December, 2013

Change the Weather History Date:

Friday, December 13, 2013

  Actual Average Record
Temperature  
Mean Temperature 50 °F 42 °F  
Max Temperature 62 °F 54 °F 82 °F (1995)
Min Temperature 37 °F 29 °F 6 °F (1958)
Degree Days  
Heating Degree Days 15 23  
Month to date heating degree days 377 281  
Since 1 July heating degree days 975 841  
Cooling Degree Days 0 0  
Month to date cooling degree days 0 0  
Year to date cooling degree days 2407 2207  
Moisture  
Dew Point 34 °F    
Average Humidity 64    
Maximum Humidity 85    
Minimum Humidity 43    
Precipitation  
Precipitation 0.01 in 0.04 in 0.35 in (1905)
Month to date precipitation 0.06 0.43  
Year to date precipitation 15.20 23.44  
Snow  
Snow 0.00 in 0.10 in - ()
Month to date snowfall 2.0 0.7  
Since 1 July snowfall 6.2 1.6  
Snow Depth -    
Sea Level Pressure  
Sea Level Pressure 29.85 in    
Wind  
Wind Speed 13 mph (SSW)    
Max Wind Speed 24 mph    
Max Gust Speed 29 mph    
Visibility 10 miles    
Events Rain    
T = Trace of Precipitation, MM = Missing Value Source: NWS Daily Summary

Daily Weather History Graph

Daily Weather History Graph

Search for Another Location

Airport or City:

Trip Planner

Search our weather history database for the weather conditions in past years. The results will help you decide how hot, cold, wet, or windy it might be!

Date:

Astronomy

Dec. 13, 2013 Rise Set
Actual Time 7:39 AM CST 5:31 PM CST
Civil Twilight 7:11 AM CST 5:59 PM CST
Nautical Twilight 6:39 AM CST 6:31 PM CST
Astronomical Twilight 6:09 AM CST 7:01 PM CST
Moon 3:10 PM CST (12/13) 4:09 AM CST (12/13)
Length of Visible Light 10h 48m
Length of Day
9h 52m
Waxing Gibbous, 88% of the Moon is Illuminated
Dec 13
Waxing Gibbous
Dec 17
Full
Dec 25
Last Quarter
Jan 1
New
Jan 7
First Quarter

Hourly Weather History & Observations

Time (CST) Temp. Windchill Dew Point Humidity Pressure Visibility Wind Dir Wind Speed Gust Speed Precip Events Conditions
12:53 AM 39.0 °F 33.4 °F 30.0 °F 70% 30.15 in 10.0 mi SSW 8.1 mph - N/A   Overcast
1:53 AM 37.9 °F 30.9 °F 32.0 °F 79% 30.12 in 10.0 mi South 10.4 mph - 0.01 in Rain Light Rain
2:53 AM 37.9 °F 32.1 °F 32.0 °F 79% 30.08 in 10.0 mi SSE 8.1 mph - 0.00 in Rain Light Rain
3:53 AM 37.9 °F 31.5 °F 33.1 °F 83% 30.06 in 10.0 mi SSW 9.2 mph - 0.00 in Rain Light Rain
4:53 AM 37.0 °F 31.6 °F 33.1 °F 86% 30.03 in 8.0 mi SSE 6.9 mph - 0.00 in   Overcast
5:53 AM 37.0 °F 29.8 °F 33.1 °F 86% 29.99 in 7.0 mi SSE 10.4 mph - N/A   Overcast
6:53 AM 37.0 °F 30.4 °F 32.0 °F 82% 29.97 in 8.0 mi South 9.2 mph - N/A   Mostly Cloudy
7:53 AM 37.0 °F 29.8 °F 33.1 °F 86% 29.96 in 6.0 mi South 10.4 mph - N/A   Overcast
8:53 AM 39.9 °F 32.5 °F 34.0 °F 79% 29.92 in 8.0 mi South 12.7 mph - N/A   Mostly Cloudy
9:53 AM 45.0 °F 37.6 °F 35.1 °F 68% 29.89 in 10.0 mi South 17.3 mph - N/A   Partly Cloudy
10:53 AM 46.0 °F 39.9 °F 34.0 °F 63% 29.87 in 10.0 mi South 13.8 mph - N/A   Mostly Cloudy
11:53 AM 48.9 °F - 35.1 °F 59% 29.82 in 10.0 mi South 12.7 mph - N/A   Overcast
12:53 PM 54.0 °F - 36.0 °F 51% 29.75 in 10.0 mi SSW 18.4 mph - N/A   Mostly Cloudy
1:53 PM 59.0 °F - 37.0 °F 44% 29.69 in 10.0 mi South 16.1 mph - N/A   Clear
2:53 PM 62.1 °F - 39.0 °F 43% 29.66 in 10.0 mi SSW 21.9 mph - N/A   Clear
3:53 PM 61.0 °F - 39.0 °F 44% 29.65 in 10.0 mi SSW 18.4 mph - N/A   Clear
4:53 PM 59.0 °F - 39.0 °F 48% 29.66 in 10.0 mi South 11.5 mph - N/A   Mostly Cloudy
5:53 PM 54.0 °F - 39.9 °F 59% 29.67 in 10.0 mi South 9.2 mph - N/A   Mostly Cloudy
6:53 PM 52.0 °F - 39.9 °F 63% 29.68 in 10.0 mi South 10.4 mph - N/A   Clear
7:42 PM 51.1 °F - 39.0 °F 63% 29.72 in 10.0 mi NNW 18.4 mph - N/A   Clear
7:53 PM 50.0 °F - 39.0 °F 66% 29.73 in 10.0 mi North 21.9 mph - N/A   Clear
8:53 PM 46.9 °F - 30.9 °F 54% 29.76 in 10.0 mi North 16.1 mph - N/A   Clear
9:53 PM 45.0 °F 38.5 °F 27.0 °F 49% 29.82 in 10.0 mi NNW 13.8 mph - N/A   Clear
10:53 PM 42.1 °F 35.7 °F 26.1 °F 53% 29.84 in 10.0 mi North 11.5 mph - N/A   Clear
11:53 PM 41.0 °F 32.8 °F 26.1 °F 55% 29.86 in 10.0 mi North 16.1 mph - N/A   Clear